DEBAB EDDE-EDDF

Flight info

Callsign DEBAB
Flight time 1h 7m
Altitude
Route
Aircraft SR22

Departure

Time 2026-05-09 11:59
Airport Erfurt-Weimar Airport (EDDE)

Arrival

Time 2026-05-09 13:07
Airport Frankfurt Main Airport (EDDF)
Time Latitude Longitude Altitude Speed Heading
2026-05-09 11:59 50.95322 10.98701 2466 ft 152 kts 95°
2026-05-09 11:59 50.95236 11.00282 2365 ft 136 kts 92°
2026-05-09 12:00 50.95417 11.01605 2186 ft 118 kts 52°
2026-05-09 12:00 50.96149 11.02076 1846 ft 116 kts
2026-05-09 12:00 50.96921 11.02172 1715 ft 108 kts
2026-05-09 12:00 50.97539 11.01733 1535 ft 105 kts 283°
2026-05-09 12:01 50.97577 11.00624 1400 ft 98 kts 276°
2026-05-09 12:01 50.97662 10.99532 1238 ft 97 kts 279°
2026-05-09 12:01 50.97763 10.98502 1134 ft 93 kts 277°
2026-05-09 12:01 50.97841 10.97533 1048 ft 83 kts 277°
2026-05-09 12:02 50.97906 10.96677 1034 ft 84 kts 279°
2026-05-09 12:02 50.98002 10.95610 1219 ft 98 kts 279°
2026-05-09 12:02 50.98071 10.94482 1458 ft 112 kts 249°
2026-05-09 12:02 50.97348 10.93918 1686 ft 123 kts 198°
2026-05-09 12:03 50.96408 10.93710 1650 ft 150 kts 172°
2026-05-09 12:03 50.95440 10.94419 1649 ft 158 kts 146°
2026-05-09 12:03 50.94507 10.95262 1728 ft 151 kts 160°
2026-05-09 12:03 50.93452 10.95550 1795 ft 155 kts 187°
2026-05-09 12:04 50.92468 10.94983 1742 ft 151 kts 210°
2026-05-09 12:04 50.91518 10.94387 1684 ft 144 kts 192°
2026-05-09 12:04 50.90531 10.94456 1593 ft 142 kts 170°
2026-05-09 12:04 50.89665 10.95107 1523 ft 139 kts 133°
2026-05-09 12:05 50.89134 10.96246 1719 ft 113 kts 156°
2026-05-09 12:05 50.88519 10.95699 1754 ft 136 kts 277°
2026-05-09 12:05 50.88671 10.94332 2196 ft 112 kts 261°
2026-05-09 12:05 50.88508 10.93091 2319 ft 117 kts 267°
2026-05-09 12:06 50.88501 10.91785 2330 ft 126 kts 264°
2026-05-09 12:06 50.88354 10.90455 2480 ft 106 kts 291°
2026-05-09 12:06 50.88893 10.90098 2654 ft 98 kts 21°
2026-05-09 12:06 50.89308 10.90840 2768 ft 95 kts 80°
2026-05-09 12:07 50.89218 10.92037 2562 ft 128 kts 111°
2026-05-09 12:07 50.88800 10.93302 2529 ft 136 kts 127°
2026-05-09 12:07 50.88103 10.94358 2541 ft 135 kts 151°
2026-05-09 12:07 50.87285 10.94748 2477 ft 120 kts 183°
2026-05-09 12:08 50.86742 10.94097 2596 ft 91 kts 270°
2026-05-09 12:08 50.87154 10.93455 2514 ft 97 kts
2026-05-09 12:08 50.87719 10.94200 2180 ft 127 kts 62°
2026-05-09 12:08 50.88032 10.95524 1999 ft 125 kts 70°
2026-05-09 12:09 50.88114 10.96688 2092 ft 98 kts 130°
2026-05-09 12:09 50.87500 10.96839 1996 ft 102 kts 227°
2026-05-09 12:09 50.87576 10.95885 1832 ft 104 kts 324°
2026-05-09 12:10 50.97698 10.95063 1040 ft 0 kts 98°
2026-05-09 12:12 50.97698 10.95067 1040 ft 2 kts 92°
2026-05-09 12:12 50.97707 10.95041 1040 ft 15 kts 249°
2026-05-09 12:12 50.97789 10.95010 1040 ft 17 kts
2026-05-09 12:12 50.97820 10.95179 1040 ft 24 kts 99°
2026-05-09 12:13 50.97794 10.95474 1038 ft 27 kts 97°
2026-05-09 12:13 50.97771 10.95766 1036 ft 26 kts 97°
2026-05-09 12:13 50.97750 10.96048 1035 ft 26 kts 98°
2026-05-09 12:13 50.97726 10.96331 1034 ft 25 kts 97°
2026-05-09 12:14 50.97705 10.96604 1032 ft 25 kts 99°
2026-05-09 12:14 50.97683 10.96880 1031 ft 25 kts 98°
2026-05-09 12:14 50.97748 10.97053 1030 ft 21 kts
2026-05-09 12:14 50.97881 10.97029 1032 ft 26 kts 284°
2026-05-09 12:15 50.97937 10.96360 1034 ft 89 kts 276°
2026-05-09 12:15 50.98011 10.95295 1198 ft 109 kts 275°
2026-05-09 12:15 50.98066 10.94059 1562 ft 107 kts 270°
2026-05-09 12:15 50.97653 10.93226 1664 ft 119 kts 169°
2026-05-09 12:16 50.96990 10.93779 1752 ft 108 kts 157°
2026-05-09 12:16 50.96203 10.93975 1642 ft 117 kts 181°
2026-05-09 12:16 50.95450 10.94306 1543 ft 115 kts 145°
2026-05-09 12:16 50.94795 10.95077 1465 ft 119 kts 151°
2026-05-09 12:17 50.93986 10.95512 1376 ft 128 kts 171°
2026-05-09 12:17 50.93089 10.95489 1285 ft 130 kts 193°
2026-05-09 12:17 50.92258 10.94862 1187 ft 138 kts 213°
2026-05-09 12:17 50.91375 10.94439 1277 ft 128 kts 180°
2026-05-09 12:18 50.90477 10.94578 1239 ft 132 kts 172°
2026-05-09 12:18 50.89677 10.95179 1345 ft 125 kts 132°
2026-05-09 12:18 50.89377 10.96473 1426 ft 129 kts 101°
2026-05-09 12:18 50.89086 10.97685 1569 ft 110 kts 133°
2026-05-09 12:19 50.88401 10.98344 1584 ft 126 kts 152°
2026-05-09 12:19 50.87612 10.99073 1758 ft 135 kts 149°
2026-05-09 12:19 50.86789 10.99871 1974 ft 142 kts 148°
2026-05-09 12:19 50.85916 11.00600 2215 ft 144 kts 160°
2026-05-09 12:20 50.84945 11.00885 2462 ft 148 kts 178°
2026-05-09 12:20 50.83904 11.00821 2685 ft 148 kts 187°
2026-05-09 12:20 50.82918 11.00608 3089 ft 139 kts 189°
2026-05-09 12:20 50.81896 11.00390 3177 ft 155 kts 186°
2026-05-09 12:21 50.80833 11.00244 3460 ft 153 kts 184°
2026-05-09 12:21 50.79777 11.00056 3717 ft 153 kts 199°
2026-05-09 12:21 50.78837 10.99223 3841 ft 159 kts 212°
2026-05-09 12:21 50.77862 10.98278 3851 ft 169 kts 212°
2026-05-09 12:22 50.76847 10.97295 3922 ft 171 kts 212°
2026-05-09 12:22 50.75846 10.96321 4104 ft 167 kts 212°
2026-05-09 12:22 50.74873 10.95330 4266 ft 165 kts 220°
2026-05-09 12:22 50.74247 10.93844 4435 ft 163 kts 244°
2026-05-09 12:23 50.73759 10.92268 4604 ft 161 kts 243°
2026-05-09 12:23 50.73271 10.90671 4777 ft 162 kts 245°
2026-05-09 12:23 50.72769 10.89052 4840 ft 167 kts 243°
2026-05-09 12:23 50.72243 10.87369 4850 ft 174 kts 244°
2026-05-09 12:24 50.71961 10.85504 4847 ft 179 kts 271°
2026-05-09 12:24 50.72047 10.83536 4888 ft 179 kts 274°
2026-05-09 12:24 50.72133 10.81602 5015 ft 175 kts 274°
2026-05-09 12:24 50.72221 10.79713 5138 ft 172 kts 274°
2026-05-09 12:25 50.72309 10.77837 5259 ft 170 kts 274°
2026-05-09 12:25 50.72395 10.75978 5381 ft 169 kts 274°
2026-05-09 12:25 50.72480 10.74133 5503 ft 169 kts 274°
2026-05-09 12:25 50.72566 10.72289 5626 ft 168 kts 274°
2026-05-09 12:26 50.72650 10.70445 5750 ft 168 kts 274°
2026-05-09 12:26 50.72737 10.68600 5840 ft 170 kts 274°
2026-05-09 12:26 50.72825 10.66700 5844 ft 176 kts 274°
2026-05-09 12:26 50.72915 10.64758 5849 ft 179 kts 274°
2026-05-09 12:27 50.73005 10.62787 5860 ft 181 kts 274°
2026-05-09 12:27 50.73091 10.60803 5853 ft 182 kts 271°
2026-05-09 12:27 50.73016 10.58806 5853 ft 182 kts 264°
2026-05-09 12:27 50.72887 10.56827 5923 ft 179 kts 264°
2026-05-09 12:28 50.72761 10.54913 6004 ft 177 kts 264°
2026-05-09 12:28 50.72632 10.52960 6005 ft 180 kts 264°
2026-05-09 12:28 50.72501 10.50979 6006 ft 182 kts 264°
2026-05-09 12:28 50.72369 10.48991 6006 ft 183 kts 264°
2026-05-09 12:29 50.72237 10.46995 6009 ft 184 kts 264°
2026-05-09 12:29 50.72103 10.44985 6014 ft 184 kts 264°
2026-05-09 12:29 50.71969 10.42962 6015 ft 186 kts 264°
2026-05-09 12:29 50.71769 10.40943 6017 ft 187 kts 253°
2026-05-09 12:30 50.71243 10.39072 6019 ft 187 kts 244°
2026-05-09 12:30 50.70669 10.37224 6019 ft 186 kts 244°
2026-05-09 12:30 50.69659 10.33459 6017 ft 186 kts 249°
2026-05-09 12:31 50.69191 10.31556 6015 ft 185 kts 249°
2026-05-09 12:31 50.68179 10.27829 6015 ft 184 kts 244°
2026-05-09 12:31 50.67613 10.26013 6014 ft 184 kts 244°
2026-05-09 12:32 50.67048 10.24207 6013 ft 184 kts 244°
2026-05-09 12:32 50.66489 10.22419 6014 ft 184 kts 244°
2026-05-09 12:32 50.65923 10.20607 6012 ft 184 kts 244°
2026-05-09 12:32 50.65358 10.18799 6012 ft 184 kts 244°
2026-05-09 12:33 50.64795 10.16992 6014 ft 184 kts 244°
2026-05-09 12:33 50.64227 10.15176 6013 ft 184 kts 244°
2026-05-09 12:33 50.63661 10.13368 6014 ft 184 kts 244°
2026-05-09 12:33 50.63091 10.11554 6012 ft 184 kts 244°
2026-05-09 12:34 50.62522 10.09739 6012 ft 184 kts 244°
2026-05-09 12:34 50.61955 10.07935 6012 ft 184 kts 244°
2026-05-09 12:34 50.61388 10.06126 6014 ft 185 kts 244°
2026-05-09 12:34 50.60817 10.04308 6013 ft 185 kts 243°
2026-05-09 12:35 50.60248 10.02496 6013 ft 185 kts 244°
2026-05-09 12:35 50.59678 10.00681 6012 ft 184 kts 244°
2026-05-09 12:35 50.59116 9.98898 6013 ft 184 kts 244°
2026-05-09 12:35 50.58547 9.97088 6012 ft 184 kts 243°
2026-05-09 12:36 50.57978 9.95281 6014 ft 184 kts 244°
2026-05-09 12:36 50.57408 9.93468 6012 ft 186 kts 244°
2026-05-09 12:36 50.56835 9.91647 6016 ft 186 kts 243°
2026-05-09 12:36 50.56258 9.89822 6017 ft 187 kts 243°
2026-05-09 12:37 50.55680 9.87996 6014 ft 186 kts 244°
2026-05-09 12:37 50.55105 9.86173 6016 ft 186 kts 244°
2026-05-09 12:37 50.54532 9.84351 6014 ft 186 kts 243°
2026-05-09 12:37 50.53959 9.82538 6014 ft 185 kts 243°
2026-05-09 12:38 50.53381 9.80725 6014 ft 185 kts 244°
2026-05-09 12:38 50.52804 9.78888 5907 ft 189 kts 244°
2026-05-09 12:38 50.52244 9.77095 5780 ft 181 kts 244°
2026-05-09 12:38 50.51699 9.75354 5648 ft 175 kts 244°
2026-05-09 12:39 50.51164 9.73660 5519 ft 172 kts 244°
2026-05-09 12:39 50.50636 9.71991 5387 ft 169 kts 244°
2026-05-09 12:39 50.50116 9.70345 5257 ft 167 kts 244°
2026-05-09 12:39 50.49580 9.68662 5138 ft 178 kts 243°
2026-05-09 12:40 50.49012 9.66883 5027 ft 185 kts 243°
2026-05-09 12:40 50.48439 9.65080 5020 ft 183 kts 243°
2026-05-09 12:40 50.47876 9.63304 5019 ft 181 kts 243°
2026-05-09 12:40 50.47318 9.61541 5018 ft 180 kts 244°
2026-05-09 12:41 50.46762 9.59792 5019 ft 179 kts 243°
2026-05-09 12:41 50.46206 9.58037 5017 ft 180 kts 244°
2026-05-09 12:41 50.45654 9.56296 5018 ft 179 kts 243°
2026-05-09 12:41 50.45094 9.54533 5015 ft 181 kts 243°
2026-05-09 12:42 50.44533 9.52771 5014 ft 180 kts 243°
2026-05-09 12:42 50.43963 9.50980 4920 ft 184 kts 243°
2026-05-09 12:42 50.43402 9.49214 4906 ft 181 kts 243°
2026-05-09 12:42 50.42844 9.47455 4903 ft 180 kts 244°
2026-05-09 12:43 50.42281 9.45678 4803 ft 185 kts 244°
2026-05-09 12:43 50.41706 9.43865 4680 ft 186 kts 244°
2026-05-09 12:43 50.41128 9.42042 4470 ft 189 kts 244°
2026-05-09 12:43 50.40535 9.40171 4174 ft 193 kts 244°
2026-05-09 12:44 50.39959 9.38327 3874 ft 184 kts 244°
2026-05-09 12:44 50.39398 9.36546 3340 ft 184 kts 244°
2026-05-09 12:44 50.39022 9.35348 2914 ft 185 kts 244°
2026-05-09 12:44 50.38460 9.33550 2269 ft 182 kts 244°
2026-05-09 12:45 50.37905 9.31800 1897 ft 177 kts 243°
2026-05-09 12:45 50.37348 9.30089 1899 ft 176 kts 243°
2026-05-09 12:45 50.36793 9.28375 1901 ft 176 kts 243°
2026-05-09 12:45 50.36245 9.26671 1900 ft 175 kts 243°
2026-05-09 12:46 50.35698 9.24970 1899 ft 175 kts 243°
2026-05-09 12:46 50.35151 9.23261 1900 ft 175 kts 243°
2026-05-09 12:46 50.34614 9.21555 1894 ft 175 kts 246°
2026-05-09 12:46 50.34155 9.19784 1893 ft 175 kts 248°
2026-05-09 12:47 50.33706 9.18015 1896 ft 175 kts 248°
2026-05-09 12:47 50.33256 9.16233 1900 ft 176 kts 248°
2026-05-09 12:47 50.32809 9.14455 1899 ft 176 kts 248°
2026-05-09 12:47 50.32361 9.12679 1899 ft 175 kts 249°
2026-05-09 12:48 50.31930 9.10899 1900 ft 176 kts 249°
2026-05-09 12:48 50.31498 9.09107 1897 ft 176 kts 249°
2026-05-09 12:48 50.31072 9.07316 1898 ft 176 kts 249°
2026-05-09 12:48 50.30645 9.05547 1890 ft 176 kts 249°
2026-05-09 12:49 50.30218 9.03756 1901 ft 176 kts 250°
2026-05-09 12:49 50.29787 9.01961 1898 ft 176 kts 249°
2026-05-09 12:49 50.29353 9.00165 1899 ft 177 kts 249°
2026-05-09 12:49 50.28919 8.98357 1903 ft 178 kts 249°
2026-05-09 12:50 50.28484 8.96554 1894 ft 176 kts 249°
2026-05-09 12:50 50.28052 8.94761 1893 ft 175 kts 249°
2026-05-09 12:50 50.27622 8.92979 1898 ft 175 kts 249°
2026-05-09 12:50 50.27195 8.91197 1897 ft 175 kts 249°
2026-05-09 12:51 50.26766 8.89408 1895 ft 176 kts 249°
2026-05-09 12:51 50.26333 8.87610 1900 ft 177 kts 249°
2026-05-09 12:51 50.25899 8.85805 1899 ft 177 kts 249°
2026-05-09 12:51 50.25463 8.84008 1902 ft 177 kts 249°
2026-05-09 12:52 50.25031 8.82211 1901 ft 176 kts 249°
2026-05-09 12:52 50.24601 8.80420 1900 ft 177 kts 249°
2026-05-09 12:52 50.24168 8.78627 1901 ft 176 kts 249°
2026-05-09 12:52 50.23736 8.76834 1899 ft 176 kts 249°
2026-05-09 12:53 50.23305 8.75050 1900 ft 176 kts 249°
2026-05-09 12:53 50.22874 8.73268 1899 ft 175 kts 249°
2026-05-09 12:53 50.22441 8.71480 1898 ft 176 kts 249°
2026-05-09 12:53 50.22008 8.69692 1899 ft 176 kts 249°
2026-05-09 12:54 50.21582 8.67922 1896 ft 176 kts 249°
2026-05-09 12:54 50.21149 8.66128 1898 ft 177 kts 249°
2026-05-09 12:54 50.20714 8.64333 1900 ft 177 kts 249°
2026-05-09 12:54 50.20279 8.62543 1901 ft 177 kts 249°
2026-05-09 12:55 50.19843 8.60746 1895 ft 176 kts 249°
2026-05-09 12:55 50.19408 8.58954 1896 ft 176 kts 249°
2026-05-09 12:55 50.18975 8.57163 1894 ft 176 kts 249°
2026-05-09 12:55 50.18544 8.55375 1896 ft 176 kts 249°
2026-05-09 12:56 50.17774 8.53943 1808 ft 180 kts 209°
2026-05-09 12:56 50.16640 8.53239 1894 ft 176 kts 186°
2026-05-09 12:56 50.15438 8.53584 1888 ft 177 kts 162°
2026-05-09 12:56 50.14423 8.54572 1892 ft 176 kts 131°
2026-05-09 12:57 50.13770 8.56097 1886 ft 164 kts 117°
2026-05-09 12:57 50.13331 8.57719 1665 ft 168 kts 111°
2026-05-09 12:57 50.12893 8.59460 1411 ft 170 kts 110°
2026-05-09 12:57 50.12405 8.61052 1388 ft 159 kts 131°
2026-05-09 12:58 50.11468 8.61797 1389 ft 150 kts 170°
2026-05-09 12:58 50.10453 8.61999 1397 ft 145 kts 173°
2026-05-09 12:58 50.09454 8.62170 1387 ft 143 kts 182°
2026-05-09 12:58 50.08614 8.61485 1390 ft 140 kts 235°
2026-05-09 12:59 50.08296 8.60143 1396 ft 139 kts 254°
2026-05-09 12:59 50.08019 8.58709 1396 ft 138 kts 253°
2026-05-09 12:59 50.07742 8.57286 1393 ft 137 kts 253°
2026-05-09 12:59 50.07467 8.55872 1392 ft 136 kts 253°
2026-05-09 13:00 50.07193 8.54464 1391 ft 136 kts 253°
2026-05-09 13:00 50.06925 8.53073 1394 ft 136 kts 253°
2026-05-09 13:00 50.06633 8.51591 1403 ft 151 kts 253°
2026-05-09 13:00 50.06316 8.49965 1409 ft 161 kts 253°
2026-05-09 13:01 50.05962 8.48273 1410 ft 167 kts 244°
2026-05-09 13:01 50.05103 8.47092 1410 ft 171 kts 199°
2026-05-09 13:01 50.03915 8.46891 1411 ft 173 kts 182°
2026-05-09 13:01 50.02737 8.46929 1361 ft 165 kts 170°
2026-05-09 13:02 50.01706 8.47489 1368 ft 144 kts 155°
2026-05-09 13:02 50.01380 8.48529 1453 ft 112 kts 63°
2026-05-09 13:02 50.01802 8.49788 1513 ft 127 kts 71°
2026-05-09 13:02 50.01731 8.51163 1677 ft 145 kts 111°
2026-05-09 13:03 50.01178 8.52463 1878 ft 148 kts 129°
2026-05-09 13:03 50.00165 8.53222 1454 ft 179 kts 181°
2026-05-09 13:03 49.99184 8.52339 1384 ft 179 kts 229°
2026-05-09 13:03 49.98478 8.50878 1660 ft 163 kts 236°
2026-05-09 13:04 49.97883 8.49292 1509 ft 175 kts 244°
2026-05-09 13:04 49.97465 8.47525 1509 ft 174 kts 254°
2026-05-09 13:04 49.97355 8.45799 1701 ft 150 kts 288°
2026-05-09 13:04 49.98106 8.44793 1623 ft 151 kts 347°
2026-05-09 13:05 49.99225 8.45056 1360 ft 176 kts 20°
2026-05-09 13:05 50.00272 8.46068 1297 ft 179 kts 40°
2026-05-09 13:05 50.01082 8.47422 1112 ft 160 kts 49°
2026-05-09 13:05 50.01643 8.48754 898 ft 135 kts 63°
2026-05-09 13:06 50.01977 8.50072 758 ft 129 kts 69°
2026-05-09 13:06 50.02266 8.51310 609 ft 113 kts 68°
2026-05-09 13:06 50.02531 8.52387 467 ft 104 kts 67°
2026-05-09 13:06 50.02764 8.53417 347 ft 97 kts 70°
2026-05-09 13:07 50.02950 8.54233 329 ft 60 kts 60°
2026-05-09 13:07 50.03073 8.54754 333 ft 47 kts 72°
2026-05-09 13:07 50.03229 8.55395 337 ft 69 kts 89°
2026-05-09 13:07 50.03232 8.55825 341 ft 9 kts 101°
2026-05-09 13:08 50.03217 8.55890 350 ft 21 kts 138°
2026-05-09 13:08 50.03129 8.55786 337 ft 21 kts 250°
2026-05-09 13:08 50.03073 8.55561 337 ft 23 kts 249°
2026-05-09 13:08 50.03018 8.55318 336 ft 25 kts 249°
2026-05-09 13:09 50.02959 8.55072 335 ft 24 kts 249°
2026-05-09 13:09 50.02899 8.54824 332 ft 25 kts 249°
2026-05-09 13:09 50.02838 8.54571 333 ft 25 kts 250°
2026-05-09 13:09 50.02781 8.54326 333 ft 25 kts 248°
2026-05-09 13:10 50.02718 8.54065 329 ft 27 kts 249°
2026-05-09 13:10 50.02649 8.53782 329 ft 28 kts 250°
2026-05-09 13:10 50.02553 8.53634 330 ft 20 kts 218°
2026-05-09 13:10 50.02486 8.53444 332 ft 22 kts 249°
2026-05-09 13:11 50.02432 8.53213 329 ft 24 kts 249°
2026-05-09 13:11 50.02371 8.52962 330 ft 25 kts 250°
2026-05-09 13:11 50.02260 8.52830 331 ft 23 kts 179°
2026-05-09 13:11 50.02146 8.52884 331 ft 17 kts 80°
2026-05-09 13:12 50.02148 8.52934 330 ft 1 kts 86°
2026-05-09 13:12 50.02149 8.52961 330 ft 2 kts 86°
2026-05-09 13:12 50.02149 8.52962 330 ft 0 kts 86°
2026-05-09 13:13 50.02152 8.53007 330 ft 11 kts 85°
2026-05-09 13:13 50.02153 8.53033 328 ft 0 kts 86°
2026-05-09 13:14 50.02184 8.53086 330 ft 12 kts
2026-05-09 13:14 50.02235 8.53243 330 ft 22 kts 70°
2026-05-09 13:16 50.02300 8.53281 327 ft 0 kts 341°